Cheyenne, WY

9:01 AM MST on February 24, 2017 (GMT -0700)
Cheyenne

Weather History for KCYS - July, 2013

Change the Weather History Date:

Monday, July 8, 2013

  Actual Average Record
Temperature  
Mean Temperature 74 °F 69 °F  
Max Temperature 91 °F 83 °F 98 °F (2003)
Min Temperature 56 °F 55 °F 39 °F (1952)
Degree Days  
Heating Degree Days 0 1  
Month to date heating degree days 0 8  
Since 1 June heating degree days 62 142  
Since 1 July heating degree days 0 8  
Cooling Degree Days 9 5  
Month to date cooling degree days 47 34  
Year to date cooling degree days 170 84  
Since 1 June cooling degree days 164 81  
Growing Degree Days 23 (Base 50)    
Moisture  
Dew Point 47 °F    
Average Humidity 49    
Maximum Humidity 80    
Minimum Humidity 17    
Precipitation  
Precipitation T in 0.06 in 0.64 in (1957)
Month to date precipitation 0.13 0.47  
Year to date precipitation 5.77 8.78  
Snow  
Snow 0.00 in 0.00 in - ()
Month to date snowfall 0.0 0.0  
Since 1 July snowfall 0.0 0.0  
Snow Depth 0.00 in    
Sea Level Pressure  
Sea Level Pressure 29.91 in    
Wind  
Wind Speed 8 mph (West)    
Max Wind Speed 24 mph    
Max Gust Speed 31 mph    
Visibility 10 miles    
Events Rain    
T = Trace of Precipitation, MM = Missing Value Source: NWS Daily Summary

Daily Weather History Graph

Daily Weather History Graph

Search for Another Location

Airport or City:

Trip Planner

Search our weather history database for the weather conditions in past years. The results will help you decide how hot, cold, wet, or windy it might be!

Date:

Astronomy

Jul. 08, 2013 Rise Set
Actual Time 5:34 AM MDT 8:33 PM MDT
Civil Twilight 5:01 AM MDT 9:06 PM MDT
Nautical Twilight 4:19 AM MDT 9:48 PM MDT
Astronomical Twilight 3:29 AM MDT 10:38 PM MDT
Moon 6:06 AM MDT (7/8) 8:36 PM MDT (7/8)
Length of Visible Light 16h 05m
Length of Day
14h 59m
New Moon, 0% of the Moon is Illuminated
Jul 8
New Moon
Jul 15
First Quarter
Jul 22
Full
Jul 29
Last Quarter
Aug 6
New

Hourly Weather History & Observations

Time (MDT) Temp. Dew Point Humidity Pressure Visibility Wind Dir Wind Speed Gust Speed Precip Events Conditions
12:53 AM 62.1 °F 52.0 °F 70% 29.90 in 10.0 mi SSW 6.9 mph - N/A   Clear
1:53 AM 62.1 °F 52.0 °F 70% 29.88 in 10.0 mi South 6.9 mph - N/A   Clear
2:53 AM 60.1 °F 52.0 °F 75% 29.90 in 10.0 mi South 5.8 mph - N/A   Clear
3:53 AM 57.0 °F 52.0 °F 83% 29.91 in 10.0 mi WSW 9.2 mph - N/A   Clear
4:53 AM 57.9 °F 52.0 °F 81% 29.90 in 10.0 mi WSW 3.5 mph - N/A   Clear
5:53 AM 57.0 °F 51.1 °F 81% 29.91 in 10.0 mi Calm Calm - N/A   Clear
6:53 AM 61.0 °F 53.1 °F 75% 29.91 in 10.0 mi Calm Calm - N/A   Clear
7:53 AM 73.0 °F 48.9 °F 42% 29.88 in 10.0 mi NNW 9.2 mph - N/A   Clear
8:53 AM 73.0 °F 45.0 °F 37% 29.92 in 10.0 mi North 10.4 mph - N/A   Clear
9:53 AM 81.0 °F 44.1 °F 27% 29.90 in 10.0 mi WNW 6.9 mph - N/A   Clear
10:53 AM 84.9 °F 42.1 °F 22% 29.90 in 10.0 mi West 17.3 mph 26.5 mph N/A   Partly Cloudy
11:53 AM 86.0 °F 42.1 °F 21% 29.90 in 10.0 mi WNW 13.8 mph 20.7 mph N/A   Partly Cloudy
12:53 PM 88.0 °F 39.9 °F 18% 29.88 in 10.0 mi WNW 12.7 mph 20.7 mph N/A   Scattered Clouds
1:53 PM 87.1 °F 37.0 °F 17% 29.87 in 10.0 mi West 12.7 mph 20.7 mph N/A   Clear
2:53 PM 89.1 °F 39.0 °F 17% 29.87 in 10.0 mi NNE 9.2 mph 16.1 mph 0.00 in   Mostly Cloudy
3:16 PM 80.6 °F 44.6 °F 28% 30.17 in 10.0 mi East 16.1 mph 21.9 mph N/A   Mostly Cloudy
3:53 PM 82.0 °F 46.0 °F 28% 29.92 in 10.0 mi East 10.4 mph 16.1 mph N/A   Partly Cloudy
4:53 PM 80.1 °F 48.9 °F 34% 29.92 in 10.0 mi SE 9.2 mph - 0.00 in Rain Light Rain
5:53 PM 80.1 °F 46.0 °F 30% 29.91 in 10.0 mi SE 8.1 mph - 0.00 in   Clear
6:53 PM 80.1 °F 45.0 °F 29% 29.90 in 10.0 mi NNW 3.5 mph - N/A   Clear
7:53 PM 77.0 °F 46.0 °F 33% 29.88 in 10.0 mi NW 6.9 mph - N/A   Clear
8:53 PM 73.0 °F 45.0 °F 37% 29.91 in 10.0 mi West 6.9 mph - N/A   Clear
9:53 PM 66.9 °F 46.0 °F 47% 29.92 in 10.0 mi WSW 3.5 mph - N/A   Clear
10:53 PM 64.9 °F 46.9 °F 52% 29.93 in 10.0 mi West 9.2 mph - N/A   Clear
11:53 PM 64.9 °F 46.9 °F 52% 29.93 in 10.0 mi West 9.2 mph - N/A   Clear